Regional Weather Roundup
Issued by NWS Portland, ME

Current Version | Previous Version | Text Only | Print | Product List | Glossary On
Versions: 1 2 3 4 5 6 7 8 9 10 11 12 13 14 15 16 17 18 19 20 21 22 23 24 25 26 27 28 29 30 31 32 33 34 35 36 37 38 39 40 41 42 43 44 45 46 47 48 49 50
000
ASUS41 KGYX 161410
RWRGYX
WEATHER ROUNDUP FOR MAINE AND NEW HAMPSHIRE
NATIONAL WEATHER SERVICE GRAY ME
900 AM EST SAT DEC 16 2017

MEZ002-005-006-010-012-015-018-020-021-024-026-027-029-161500-
MAINE

CITY           SKY/WX    TMP DP  RH WIND       PRES   REMARKS
PORTLAND       SUNNY     15  11  83 W5        29.86R
SANFORD        SUNNY      9   5  84 CALM      29.86R
BAR HARBOR     SUNNY     22  14  71 W5        29.82R
WISCASSET      SUNNY     15  13  91 CALM      29.86R
ROCKLAND       SUNNY     18  13  80 W8        29.84R
FRYEBURG       SUNNY      6   2  83 CALM      29.82R
LEWISTONAUBURN MOSUNNY   14  10  84 CALM      29.84R
AUGUSTA        PTSUNNY   16  12  84 CALM      29.82R
BANGOR         MOSUNNY   16  10  77 W5        29.81R
GREENVILLE       N/A     14  11  87 NW10G18   29.68R WCI   1
MILLINOCKET    CLOUDY     7   4  87 CALM      29.79R
HOULTON        MOSUNNY    8   4  83 N6        29.76R
PRESQUE ISLE   MOSUNNY    9   1  70 NW8       29.78R
FRENCHVILLE    SUNNY      2  -4  76 NW10      29.72R WCI -14
CARIBOU        PTSUNNY    6  -2  69 NW7       29.75R
$$

NHZ002-005-008-009-011-012-014-161500-
NEW HAMPSHIRE

CITY           SKY/WX    TMP DP  RH WIND       PRES   REMARKS
PORTSMOUTH     MOSUNNY   20  12  69 W8        29.87R
ROCHESTER      SUNNY     19  12  74 CALM      29.85R
NASHUA         SUNNY     23  17  78 CALM      29.90R
MANCHESTER     MOSUNNY   20  13  74 CALM      29.87R
CONCORD        SUNNY     12   9  87 NE3       29.87R
LACONIA        CLOUDY    15  11  83 CALM      29.85R
PLYMOUTH       CLOUDY     5   2  88 CALM      29.85R
BERLIN         LGT SNOW   2  -1  88 CALM      29.78R FOG
WHITEFIELD     LGT SNOW   5   3  91 CALM      29.79R FOG
JAFFREY        SUNNY     23  15  71 W12       29.84R WCI  12
KEENE          SUNNY     11   9  92 CALM      29.90R
LEBANON        MOSUNNY    8   4  83 CALM      29.84R
MT WASHINGTON  SNOW      -2  -2 100 NW44        N/A  VSB 0   WCI -33
$$

VTZ005-007-008-161500-
VERMONT

CITY           SKY/WX    TMP DP  RH WIND       PRES   REMARKS
ST JOHNSBURY     N/A      7   5  91 MISG      29.81R
MONTPELIER     CLOUDY    10   9  95 CALM      29.81R
BURLINGTON     PTSUNNY   22  15  75 S9        29.83R
$$

MAZ007-012-024-CTZ003-RIZ002-NYZ038-NYZ072-161500-
SOUTHERN NEW ENGLAND AND NY

CITY           SKY/WX    TMP DP  RH WIND       PRES   REMARKS
BOSTON         MOSUNNY   26  16  65 W15       29.92R WCI  14
WORCESTER      SUNNY     19  11  70 W17       29.86R WCI   4
NANTUCKET      SUNNY     29  21  72 W14G26    29.94R WCI  18
PROVIDENCE     PTSUNNY   23  16  74 W15       29.96R WCI  10
HARTFORD       MOSUNNY   18  14  84 S6        29.97R
ALBANY         MOSUNNY   20  14  77 CALM      29.93R
NEW YORK CITY  PTSUNNY   30  17  58 SW16G25   30.06R WCI  19
$$

ANZ081-ANZ082-ANZ150-NHZ014-MEZ023>029-161500-
COASTAL MARINE OBSERVATIONS

STATION/POSITION TIME  TEMP    WIND        PRES    WAVE
                       AIR SEA DIR/SP/G            HT/PER
                 (UTC) (F)     (DEG/KT/KT) (MB)    (FT/S)
MOUNT DESERT ROC 1400   24     330/ 12/ 14 1009.5R
MATINICUS ROCK   1300   24     360/ 13/ 14 1008.6R
ISLE OF SHOALS   1300   23     280/ 14/ 16 1010.9R
JEFFREYS LEDGE   1336      48                N/A     4/ 5
GEORGES BANK BUO 1250   39 50              1006.1    7/ 6
$$

.............KEY..............
   WCI - WIND CHILL
   TC  - TEMPERATURE IN CELSIUS
   VSB - VISIBILITY IN MILES
   HX  - HEAT INDEX
   FAIR- INDICATES FEW OR NO CLOUDS BELOW 12,000 FT, WITH NO
         SIGNIFICANT WEATHER AND/OR OBSTRUCTIONS TO VISIBILITY.





USA.gov is the U.S. government's official web portal to all federal, state and local government web resources and services.